Wind_Speed
23 25 25 24 22 21 21 21 22 22 22 21 20 20 20 19 18 18 18 17 16 16 16 15 16 17 17 17 16 14 14 14 14 13 13 13 13 13 11 10 10 10
25 25 25 24 22 22 22 22 21 21 22 22 21 20 20 19 18 18 17 17 18 18 17 17 17 17 18 17 15 14 14 15 15 14 14 13 13 13 11 10 10 9
25 25 25 25 23 22 22 23 22 22 21 22 21 20 20 19 18 18 18 18 18 19 18 17 17 17 17 15 14 14 14 14 15 14 13 13 13 12 11 10 9 10
26 25 26 26 24 21 21 24 25 23 23 23 22 20 20 20 19 20 20 20 20 20 19 17 17 17 16 14 13 14 14 13 12 11 11 11 11 12 11 10 10 11
25 24 26 26 24 23 22 24 26 25 24 24 22 21 21 20 20 20 21 21 21 21 20 18 17 16 14 13 14 14 13 12 12 11 11 11 11 11 11 11 11 11
23 23 25 25 25 25 23 24 26 25 24 23 21 21 21 20 20 21 22 22 22 21 20 18 17 16 14 13 15 15 13 13 13 12 12 11 11 11 11 11 11 10
23 23 24 24 25 26 24 25 26 24 22 21 21 21 22 22 22 21 22 22 22 21 20 17 16 15 14 14 15 15 14 14 14 13 13 12 12 11 11 11 10 10
22 23 22 22 24 25 23 24 24 21 21 21 21 22 22 23 24 23 22 21 21 20 18 17 16 14 14 14 14 15 15 14 13 13 13 12 12 11 11 10 10 9
17 17 18 20 23 23 22 22 20 20 21 22 22 22 22 23 24 23 21 20 19 18 18 18 16 15 15 13 13 14 14 14 13 12 11 11 10 11 10 10 10 9
14 14 16 20 21 20 19 18 18 21 22 22 23 23 23 22 22 20 19 18 17 18 20 20 18 17 15 13 12 13 14 13 12 10 9 9 9 10 10 10 10 9
12 14 17 19 20 19 18 18 20 22 22 23 23 23 22 22 21 19 18 17 18 19 21 20 20 18 16 13 13 14 14 13 11 9 7 8 9 10 10 9 9 9
11 13 16 17 18 18 19 20 22 22 23 24 23 22 22 22 20 18 18 18 19 21 22 21 20 18 15 13 14 15 14 12 10 8 7 9 10 10 10 9 8 9
10 11 13 16 18 18 19 21 23 25 25 25 24 24 23 20 18 18 17 18 21 22 22 21 20 17 15 14 14 15 14 12 11 10 10 11 11 11 10 8 8 9
11 11 13 15 18 19 20 20 23 27 28 25 23 23 21 17 17 18 18 20 22 21 20 20 19 18 16 15 15 15 14 14 13 13 13 12 12 11 10 9 10 11
11 12 13 14 16 18 19 20 22 25 25 23 22 21 18 16 17 18 20 24 24 21 20 20 19 18 17 16 16 16 16 16 16 15 14 12 11 11 11 11 12 13
9 12 12 14 16 17 19 20 21 22 22 22 24 22 19 18 18 17 20 24 25 22 21 21 20 19 17 16 17 16 16 17 18 16 14 12 11 12 13 13 12 11
8 11 13 15 17 18 20 22 23 23 23 23 24 24 20 19 19 18 18 20 23 24 22 21 21 20 18 18 17 16 16 17 18 17 15 12 11 13 14 13 12 11
8 12 15 16 18 20 21 22 22 23 23 22 22 23 21 20 20 19 17 18 20 23 23 21 20 20 19 18 17 16 16 17 18 18 15 13 12 13 14 13 12 11
8 11 15 17 19 21 22 21 21 21 21 22 22 22 21 21 20 18 18 17 18 21 22 21 21 20 19 18 17 16 16 16 18 18 15 14 15 15 14 13 12 11
8 10 13 17 20 23 23 23 23 22 21 22 23 22 22 21 19 19 19 18 18 20 20 20 21 21 19 17 17 17 16 16 18 18 17 17 17 17 16 14 13 12
8 10 13 17 21 23 25 24 24 24 25 24 23 22 21 20 19 19 20 19 19 18 19 20 21 19 18 17 16 16 17 18 19 20 19 19 18 17 16 14 12 11
8 10 12 15 17 19 22 23 23 24 25 25 23 22 20 19 18 19 20 20 20 19 19 20 21 19 17 16 16 17 18 19 20 20 20 19 17 15 13 11 10 9
8 11 13 16 16 16 18 21 21 22 25 26 25 23 20 19 18 20 22 22 20 20 21 21 20 20 19 18 18 18 18 19 21 21 19 17 15 13 11 10 8 7
9 12 13 16 17 17 19 21 21 21 23 25 26 23 20 19 19 21 25 24 22 21 22 22 22 22 21 20 20 20 21 22 21 19 16 15 14 13 11 10 8 6
9 11 11 13 14 15 17 19 22 24 22 20 24 26 23 22 23 24 26 26 22 21 22 23 24 24 22 21 20 20 21 20 17 15 14 15 15 14 12 10 8 7
8 9 11 14 15 14 15 15 18 21 18 14 19 26 25 25 28 29 28 27 24 22 24 25 24 24 22 20 18 17 16 15 14 14 16 17 16 15 13 11 10 9
Wind_Direction
235 238 239 236 232 230 227 219 213 210 208 206 207 209 208 206 208 207 204 203 205 206 207 207 205 203 202 198 198 202 206 207 208 208 209 210 211 214 212 210 215 217
229 234 237 235 230 228 226 221 214 211 207 203 204 207 208 209 209 207 203 203 204 201 201 202 199 199 200 197 195 199 203 205 206 205 204 205 208 208 208 211 214 215
223 227 232 233 229 226 225 222 215 211 207 201 200 203 207 210 210 208 204 203 201 197 196 197 196 198 199 195 192 197 203 204 203 202 201 204 208 207 207 211 216 216
221 224 230 231 229 227 228 223 215 210 205 199 197 199 205 210 210 208 204 200 197 194 192 192 194 198 198 194 195 199 201 200 200 202 203 207 209 206 207 214 215 214
224 226 231 231 227 226 227 223 216 209 203 197 194 197 201 204 204 203 201 196 193 191 190 192 194 196 195 193 196 198 197 198 200 204 207 209 207 203 208 216 215 212
226 230 233 230 226 225 225 222 215 209 202 195 192 193 195 198 199 198 196 192 189 189 191 194 193 190 188 189 193 196 196 199 203 206 207 207 206 205 208 212 210 209
226 229 229 228 227 225 223 219 212 204 200 196 192 191 190 191 193 192 189 189 190 191 192 193 192 187 186 188 191 193 195 198 202 204 205 205 206 204 203 203 202 204
231 229 225 225 227 224 221 217 207 197 196 195 194 193 190 188 188 187 188 190 192 193 192 194 196 192 189 187 186 188 190 191 195 198 200 201 201 198 195 194 190 195
248 240 228 224 226 224 221 216 201 192 194 194 191 191 191 191 188 186 189 190 191 196 199 201 203 199 192 187 185 186 186 185 188 192 195 194 194 192 189 185 181 184
260 251 233 227 227 222 217 210 198 194 192 189 189 188 188 189 186 186 192 193 195 201 202 203 203 196 187 184 185 182 180 182 182 183 186 187 190 190 185 180 180 182
255 248 233 228 229 221 211 206 200 196 190 186 188 187 185 184 183 187 196 199 200 198 193 194 194 187 181 182 182 175 170 170 166 159 165 179 187 187 185 187 186 186
247 241 229 227 229 218 207 206 202 197 193 187 185 185 184 184 184 189 195 196 194 189 185 186 186 182 181 183 181 176 168 162 156 149 155 175 188 190 191 196 192 187
229 224 216 219 226 217 209 208 204 199 195 187 185 187 186 185 187 191 194 193 190 186 184 185 184 183 185 185 182 179 174 170 166 156 149 159 175 182 184 187 186 184
217 211 210 214 222 219 212 207 199 195 190 185 187 187 183 184 193 197 195 191 188 187 186 184 183 184 187 187 185 181 178 177 172 159 147 148 156 166 173 173 171 173
221 214 215 215 216 212 207 201 196 191 186 183 183 179 177 186 192 192 191 188 186 186 184 182 183 186 188 187 182 178 175 173 169 161 155 154 157 164 168 163 159 162
232 215 211 208 203 197 192 191 190 185 181 182 178 172 177 184 178 176 182 185 187 187 183 183 186 188 187 182 177 174 173 170 167 165 164 163 163 163 160 156 156 161
233 208 200 195 190 184 180 182 182 178 179 186 180 173 179 182 174 172 176 181 188 190 186 186 190 189 184 180 180 180 177 173 171 171 171 170 167 160 155 156 161 169
229 204 195 188 185 181 175 176 179 179 182 187 181 174 179 182 179 179 178 177 182 186 187 189 189 186 182 182 184 182 177 176 176 174 171 170 168 163 160 163 168 173
222 207 200 194 188 182 175 177 182 182 185 188 181 175 180 183 181 181 180 178 177 179 183 186 183 180 180 181 180 177 175 174 175 174 172 172 175 174 173 175 178 181
212 207 208 204 192 181 179 183 182 179 183 187 181 178 182 184 181 181 181 177 176 178 179 179 177 176 176 176 174 175 177 176 174 175 173 174 177 180 180 182 184 187
207 200 210 209 196 187 186 186 181 177 179 183 183 183 186 186 182 184 183 177 176 180 180 176 175 174 173 174 177 179 180 177 174 173 173 174 177 181 184 187 190 194
200 192 201 201 194 191 189 184 183 183 180 179 185 188 187 187 184 184 185 182 179 182 181 177 177 177 176 178 183 184 181 180 179 179 177 176 179 185 188 191 194 197
191 185 186 183 184 195 194 186 186 191 186 180 184 189 188 186 184 182 184 184 181 181 181 180 180 181 180 183 188 190 191 191 188 185 183 181 184 190 191 191 196 201
178 181 182 181 185 196 199 191 190 195 192 182 180 185 188 184 181 181 180 179 178 179 181 182 182 181 182 186 191 194 198 197 184 174 175 179 183 188 189 189 197 208
160 168 173 177 184 195 203 202 198 197 199 191 179 176 179 179 178 179 177 172 173 179 181 181 181 181 183 188 193 198 205 207 196 187 195 197 193 195 197 200 210 222
151 154 154 155 158 166 178 185 185 181 185 191 179 170 170 173 175 176 175 170 171 179 183 182 180 181 183 188 196 204 212 220 219 215 218 216 208 208 212 216 221 230
Height
1504 1506 1507 1508 1508 1508 1508 1508 1509 1510 1511 1513 1515 1517 1519 1521 1523 1524 1525 1526 1527 1529 1530 1531 1533 1534 1535 1536 1537 1538 1539 1540 1541 1543 1544 1545 1546 1548 1549 1551 1551 1552
1500 1502 1504 1505 1506 1507 1507 1508 1508 1509 1510 1511 1514 1516 1518 1520 1522 1523 1525 1526 1527 1528 1529 1530 1532 1533 1535 1536 1537 1538 1539 1540 1541 1543 1544 1545 1546 1548 1549 1550 1551 1552
1496 1498 1500 1501 1503 1505 1506 1507 1508 1508 1509 1510 1512 1515 1517 1519 1521 1523 1524 1525 1526 1527 1528 1529 1531 1532 1534 1535 1536 1537 1539 1540 1541 1543 1544 1545 1546 1547 1548 1550 1551 1551
1493 1495 1497 1499 1501 1503 1505 1506 1507 1507 1508 1509 1511 1513 1516 1518 1520 1521 1523 1524 1525 1526 1528 1529 1530 1532 1533 1534 1535 1537 1538 1540 1541 1542 1544 1545 1546 1547 1548 1549 1550 1551
1492 1494 1495 1498 1500 1502 1503 1504 1505 1506 1507 1508 1510 1513 1515 1517 1518 1520 1522 1523 1525 1526 1527 1528 1530 1531 1532 1533 1535 1536 1538 1539 1540 1542 1543 1544 1546 1547 1548 1549 1550 1551
1491 1493 1494 1497 1499 1500 1501 1502 1504 1505 1507 1508 1510 1513 1515 1516 1518 1519 1521 1523 1524 1526 1527 1529 1530 1531 1532 1533 1535 1536 1537 1539 1540 1542 1543 1544 1545 1546 1547 1548 1549 1550
1489 1490 1493 1495 1497 1498 1499 1500 1502 1505 1508 1510 1512 1513 1514 1516 1518 1519 1521 1522 1524 1525 1527 1529 1530 1531 1532 1534 1535 1536 1537 1539 1540 1541 1543 1544 1545 1546 1547 1548 1549 1550
1487 1489 1492 1494 1496 1497 1497 1499 1502 1506 1508 1510 1512 1514 1514 1516 1518 1519 1521 1522 1523 1525 1527 1529 1530 1531 1533 1534 1535 1536 1537 1538 1540 1541 1542 1544 1545 1546 1547 1548 1549 1550
1489 1490 1493 1494 1495 1496 1497 1500 1504 1506 1507 1509 1512 1514 1515 1517 1519 1520 1521 1522 1523 1525 1527 1528 1530 1532 1533 1534 1535 1536 1537 1538 1539 1540 1542 1543 1544 1545 1547 1548 1549 1550
1490 1492 1493 1492 1493 1495 1498 1502 1505 1505 1507 1509 1512 1513 1515 1517 1519 1520 1522 1523 1523 1525 1526 1528 1530 1531 1533 1534 1535 1536 1537 1537 1539 1540 1542 1543 1544 1545 1546 1547 1548 1549
1490 1490 1491 1491 1493 1495 1499 1503 1504 1505 1507 1509 1511 1513 1514 1516 1518 1520 1521 1523 1523 1525 1526 1527 1529 1531 1533 1534 1535 1536 1537 1537 1539 1540 1541 1543 1544 1545 1546 1547 1549 1550
1488 1488 1490 1491 1492 1496 1500 1502 1504 1505 1507 1509 1511 1512 1514 1516 1517 1519 1521 1522 1523 1525 1526 1528 1529 1531 1532 1534 1535 1536 1536 1537 1539 1540 1541 1542 1544 1545 1547 1548 1549 1550
1486 1487 1489 1490 1492 1496 1499 1501 1504 1506 1507 1508 1510 1511 1513 1515 1516 1518 1520 1522 1524 1525 1527 1528 1529 1531 1532 1533 1534 1535 1536 1537 1539 1540 1541 1543 1544 1546 1547 1548 1549 1550
1486 1487 1488 1489 1491 1495 1498 1500 1504 1506 1505 1507 1509 1511 1513 1515 1516 1518 1520 1522 1524 1525 1527 1528 1529 1531 1532 1533 1534 1535 1536 1537 1539 1541 1542 1543 1545 1546 1547 1548 1549 1550
1485 1487 1488 1490 1491 1494 1497 1499 1503 1505 1505 1506 1509 1511 1513 1515 1516 1517 1518 1521 1523 1525 1526 1528 1529 1530 1532 1532 1533 1534 1536 1537 1539 1541 1542 1544 1545 1546 1547 1549 1550 1551
1484 1486 1488 1490 1492 1494 1497 1499 1501 1503 1505 1506 1508 1510 1513 1515 1516 1517 1518 1520 1523 1524 1526 1528 1529 1531 1532 1533 1534 1535 1536 1538 1539 1541 1543 1544 1545 1546 1548 1549 1550 1552
1485 1487 1488 1490 1492 1494 1497 1499 1500 1503 1505 1506 1508 1510 1513 1515 1516 1517 1519 1521 1522 1524 1526 1528 1529 1531 1532 1533 1535 1536 1537 1538 1540 1541 1543 1545 1546 1547 1548 1550 1551 1553
1486 1488 1489 1491 1493 1495 1497 1499 1501 1502 1504 1506 1508 1510 1512 1514 1516 1518 1519 1521 1522 1524 1526 1527 1529 1531 1532 1534 1535 1536 1537 1539 1540 1542 1544 1545 1547 1548 1549 1550 1551 1553
1488 1489 1490 1491 1493 1495 1497 1499 1501 1503 1504 1506 1509 1510 1512 1514 1516 1518 1520 1521 1523 1524 1526 1527 1529 1530 1532 1534 1535 1537 1538 1540 1541 1543 1544 1545 1547 1548 1549 1551 1552 1553
1489 1490 1491 1492 1494 1496 1497 1499 1501 1503 1505 1507 1509 1510 1512 1514 1516 1518 1520 1521 1523 1524 1526 1527 1529 1531 1532 1534 1535 1537 1539 1540 1542 1543 1544 1545 1546 1548 1549 1550 1552 1553
1490 1491 1492 1493 1495 1497 1498 1499 1501 1503 1504 1507 1509 1511 1513 1515 1516 1518 1520 1521 1523 1525 1526 1528 1529 1531 1533 1534 1536 1537 1539 1540 1542 1543 1544 1545 1546 1548 1549 1550 1551 1552
1491 1492 1493 1494 1496 1498 1499 1500 1502 1503 1504 1506 1509 1511 1513 1515 1516 1518 1520 1521 1523 1525 1527 1529 1530 1532 1534 1535 1536 1538 1539 1540 1542 1543 1544 1545 1546 1548 1549 1550 1551 1552
1493 1493 1494 1495 1497 1499 1501 1502 1503 1503 1504 1505 1508 1510 1513 1514 1516 1518 1519 1521 1523 1525 1527 1529 1531 1533 1534 1535 1536 1538 1539 1540 1541 1542 1543 1545 1546 1548 1549 1550 1551 1552
1496 1495 1496 1496 1498 1499 1501 1502 1503 1504 1504 1505 1507 1510 1512 1514 1516 1517 1519 1521 1523 1525 1527 1529 1531 1533 1534 1536 1536 1537 1538 1539 1540 1542 1544 1545 1546 1547 1548 1549 1550 1551
1498 1498 1498 1498 1499 1500 1501 1502 1504 1505 1506 1506 1507 1509 1512 1514 1516 1518 1520 1521 1523 1526 1529 1530 1531 1532 1534 1535 1537 1538 1538 1539 1540 1543 1545 1545 1546 1547 1548 1549 1550 1551
1500 1500 1501 1500 1501 1501 1502 1504 1504 1505 1506 1509 1510 1511 1512 1515 1516 1518 1520 1522 1524 1527 1529 1530 1531 1532 1534 1535 1537 1538 1539 1539 1541 1543 1544 1544 1545 1546 1547 1548 1549 1549